[[{"header":{"parameterUnit":"m.s-1","parameterCategory":1,"la1":30.2991,"la2":30.254,"lo1":-89.0895,"lo2":-89.0444,"dy":0.0017,"dx":0.0017,"nx":28,"ny":28,"refTime":"2024-04-07T09:00:00:Z","depth":0,"parameterNumber":2,"parameterNumberName":"U-component_of_WINDS"},"data":[0,0,0,0,0,0,0,0,0,0,0,0,0,0,0,0,0,0,0,0,0,0,0,0,0,0,0,0,0,0,0,0,0,0,0,0,0,0,0,0,0,0,0,0,0,0,0,0,0,0,0,0,0,0,0,0,0,0,-5.005,-5.0051,0,-5.0161,-5.0163,-5.0164,-5.017,-5.0169,-5.0168,-5.0166,-5.0278,-5.0282,-5.0286,0,0,0,0,0,0,0,0,0,0,0,0,0,-4.9842,-4.9846,-5.005,-5.0052,-5.0053,-5.0161,-5.0163,-5.0164,-5.017,-5.0169,-5.0167,-5.0166,-5.0277,-5.0282,-5.0287,0,0,0,0,0,0,0,0,0,0,0,0,0,-4.9941,-4.9847,-5.005,-5.0069,-5.0072,-5.0161,-5.0163,-5.0165,-5.0171,-5.0169,-5.0167,-5.0165,-5.0275,-5.0281,-5.0287,-5.0364,0,0,-5.0307,-5.0309,0,0,0,0,0,0,0,0,-4.9935,-4.9949,-5.0065,-5.0068,-5.0071,-5.015,-5.013,-5.0231,-5.0171,-5.0133,-5.0166,-5.0164,-5.0237,-5.0246,-5.0271,-5.0369,-5.0374,-5.0307,-5.0311,-5.0314,-5.0315,0,0,0,0,0,0,0,-4.9928,-4.9944,-5.0094,-5.0067,-5.0071,-5.0072,-5.0084,-5.015,-5.0194,-5.0136,-5.0137,-5.015,-5.0238,-5.0265,-5.0274,-5.0376,-5.0307,-5.0312,-5.0316,-5.0319,-5.0542,-5.0544,0,0,0,0,0,0,-4.9918,-4.9938,-5.0091,-5.0097,-4.9997,-5.0077,-5.0091,-5.0127,-5.0194,-5.0202,-5.0152,-5.015,-5.0255,-5.0267,-5.0278,-5.0371,-5.0313,-5.0319,-5.0323,-5.054,-5.0542,-5.0545,0,0,0,0,0,0,-4.9914,-4.9932,-5.0086,-5.0018,-5.0038,-5.0083,-5.0123,-5.013,-5.0157,-5.0205,-5.0213,-5.0171,-5.0254,-5.0269,-5.0343,-5.0375,-5.0322,-5.0328,-5.0537,-5.0541,-5.0544,-5.0558,0,0,0,0,0,0,-4.9908,-4.993,-4.996,-5.0019,-5.0041,-5.0149,-5.0125,-5.0133,-5.0168,-5.0167,-5.0225,-5.0233,-5.0254,-5.0333,-5.0349,-5.0382,-5.0333,-5.0534,-5.0539,-5.0543,-5.0555,-5.0561,-5.0567,0,0,0,0,0,-4.99,-4.9959,-4.9961,-4.9979,-5.0079,-5.0151,-5.0164,-5.0187,-5.017,-5.02,-5.0232,-5.0231,-5.037,-5.0341,-5.0358,-5.0394,-5.0532,-5.0537,-5.0542,-5.0552,-5.056,-5.0567,0,0,0,0,0,0,-4.9901,-4.9967,-4.997,-5.005,-5.0095,-5.0152,-5.019,-5.0195,-5.0245,-5.0242,-5.0268,-5.0282,-5.0354,-5.0382,-5.0349,-5.0472,-5.0449,-5.0458,-5.045,-5.0459,-5.0465,-5.0455,-5.0338,0,0,0,0,0,-4.9911,-4.9964,-5.0019,-5.0084,-5.0106,-5.0145,-5.0177,-5.0191,-5.0238,-5.0257,-5.0294,-5.034,-5.0393,-5.0428,-5.048,-5.056,-5.0572,-5.0594,-5.06,-5.0605,-5.0611,-5.0655,-5.0664,-5.0561,-5.0561,-5.0561,0,0,-4.9931,-4.9974,-5.0005,-5.0085,-5.0122,-5.0175,-5.016,-5.0218,-5.0258,-5.0266,-5.0337,-5.0366,-5.0419,-5.0496,-5.0532,-5.0521,-5.0643,-5.0611,-5.0614,-5.0618,-5.0661,-5.067,-5.0679,-5.0564,-5.0564,-5.0563,0,0,-4.9995,-5.0033,-5.0091,-5.0129,-5.0185,-5.021,-5.0224,-5.0281,-5.0301,-5.0373,-5.038,-5.0429,-5.0521,-5.0558,-5.0589,-5.0669,-5.067,-5.0685,-5.0716,-5.0758,-5.0766,-5.0774,-5.0801,-5.081,-5.0692,-5.0692,-5.0692,0,-5.0012,-5.0094,-5.012,-5.0178,-5.0212,-5.0224,-5.0282,-5.0317,-5.0387,-5.041,-5.0399,-5.0515,-5.0551,-5.0636,-5.0656,-5.0682,-5.0698,-5.0677,-5.0763,-5.0771,-5.0778,-5.0804,-5.0814,-5.0693,-5.0693,-5.0693,-5.0693,0,-5.0112,-5.0169,-5.0209,-5.0277,-5.0317,-5.0375,-5.0409,-5.0446,-5.0457,-5.0484,-5.0558,-5.0602,-5.0663,-5.0685,-5.0697,-5.0773,-5.0764,-5.0758,-5.0735,-5.0789,-5.0813,-5.0824,-5.0695,-5.0695,-5.0694,-5.0694,0,0,-5.0177,-5.026,-5.0274,-5.0305,-5.0369,-5.0413,-5.0472,-5.0532,-5.0563,-5.0612,-5.0661,-5.0739,-5.0734,-5.0769,-5.0785,-5.0823,-5.0882,-5.0812,-5.0813,-5.0821,-5.0967,-5.0969,-5.098,-5.0884,-5.0887,-5.0888,-5.0961,0,-5.0246,-5.0351,-5.0377,-5.0466,-5.0518,-5.053,-5.0582,-5.0626,-5.0653,-5.0701,-5.0731,-5.0786,-5.0775,-5.0796,-5.0834,-5.0866,-5.0911,-5.0862,-5.0929,-5.0931,-5.0912,-5.0994,-5.0997,-5.1063,-5.0971,-5.0973,-5.0974,0,-5.034,-5.0391,-5.0486,-5.0543,-5.0566,-5.0611,-5.0669,-5.0716,-5.0766,-5.0783,-5.0824,-5.0837,-5.0898,-5.0874,-5.0958,-5.0924,-5.0954,-5.0974,-5.0977,-5.0982,-5.0954,-5.0998,-5.1085,-5.1094,-5.099,-5.0989,-5.0988,0,-5.0375,-5.0469,-5.0537,-5.0563,-5.0632,-5.0664,-5.0694,-5.0743,-5.0778,-5.0829,-5.0852,-5.0909,-5.094,-5.0984,-5.1012,-5.0992,-5.1093,-5.1072,-5.1108,-5.1107,-5.1126,-5.1124,-5.1216,-5.1149,-5.1149,-5.1149,-5.1149,0,-5.0448,-5.0505,-5.0554,-5.0595,-5.0659,-5.0689,-5.0752,-5.0782,-5.0826,-5.0873,-5.0889,-5.0933,-5.0968,-5.1018,-5.104,-5.1106,-5.112,-5.1135,-5.114,-5.1132,-5.113,-5.1149,-5.1145,-5.1152,-5.1151,-5.1151,-5.115,0,-5.0497,-5.0532,-5.0607,-5.0667,-5.0684,-5.0728,-5.0779,-5.082,-5.0848,-5.0908,-5.0924,-5.0968,-5.1027,-5.106,-5.1134,-5.1149,-5.1222,-5.1226,-5.1204,-5.1206,-5.1239,-5.1235,-5.1346,-5.1361,-5.1285,-5.1286,-5.1287,0,-5.054,-5.0584,-5.0649,-5.0682,-5.0713,-5.0767,-5.0803,-5.0834,-5.0871,-5.0933,-5.0966,-5.1026,-5.1076,-5.1169,-5.1207,-5.1264,-5.1268,-5.1303,-5.1276,-5.1267,-5.1266,-5.1262,-5.1266,-5.1306,-5.1307,-5.1308,-5.1308,0,-5.0612,-5.0628,-5.0679,-5.0737,-5.078,-5.0827,-5.0874,-5.09,-5.094,-5.098,-5.1041,-5.1079,-5.1155,-5.1214,-5.1274,-5.1305,-5.1313,-5.1317,-5.1328,-5.1319,-5.1304,-5.131,-5.1214,-5.1313,-5.1313,-5.1312,-5.1312,-5.1312,-5.0658,-5.0698,-5.075,-5.0807,-5.0845,-5.0889,-5.093,-5.0964,-5.1016,-5.108,-5.1096,-5.1159,-5.121,-5.1291,-5.1324,-5.1374,-5.1367,-5.1383,-5.1387,-5.139,-5.139,-5.1298,-5.1385,-5.1385,-5.1385,-5.1385,-5.1385,0,-5.0729,-5.0764,-5.0816,-5.0881,-5.0926,-5.0932,-5.0984,-5.1021,-5.1076,-5.1123,-5.1172,-5.1241,-5.1299,-5.1343,-5.1402,-5.1433,-5.1438,-5.1447,-5.1444,-5.1451,-5.1394,-5.1377,-5.1442,-5.1442,-5.1442,-5.1442,-5.1442,-5.1442,-5.0771,-5.0838,-5.086,-5.0946,-5.098,-5.1043,-5.1072,-5.1112,-5.115,-5.1227,-5.1275,-5.1304,-5.1349,-5.1412,-5.1465,-5.1476,-5.1496,-5.1504,-5.1516,-5.1461,-5.1455,-5.1449,-5.1433,-5.1509,-5.1509,-5.1569,-5.1569,-5.157]},{"header":{"parameterUnit":"m.s-1","parameterCategory":1,"la1":30.2991,"la2":30.254,"lo1":-89.0895,"lo2":-89.0444,"dy":0.0017,"dx":0.0017,"nx":28,"ny":28,"refTime":"2024-04-07T09:00:00:Z","depth":0,"parameterNumber":3,"parameterNumberName":"V-component_of_WINDS"},"data":[0,0,0,0,0,0,0,0,0,0,0,0,0,0,0,0,0,0,0,0,0,0,0,0,0,0,0,0,0,0,0,0,0,0,0,0,0,0,0,0,0,0,0,0,0,0,0,0,0,0,0,0,0,0,0,0,0,0,5.2507,5.2507,0,5.2522,5.2523,5.2523,5.2493,5.2492,5.2491,5.249,5.2505,5.2506,5.2507,0,0,0,0,0,0,0,0,0,0,0,0,0,5.2451,5.2452,5.2507,5.2507,5.2507,5.2522,5.2523,5.2523,5.2493,5.2492,5.2491,5.2489,5.2504,5.2506,5.2507,0,0,0,0,0,0,0,0,0,0,0,0,0,5.2472,5.2453,5.2507,5.2494,5.2493,5.2522,5.2523,5.2523,5.2493,5.2492,5.249,5.2489,5.2504,5.2505,5.2507,5.2549,0,0,5.2513,5.2514,0,0,0,0,0,0,0,0,5.2471,5.2474,5.2496,5.2495,5.2494,5.2504,5.2508,5.2532,5.2494,5.2493,5.249,5.2488,5.2506,5.2507,5.2513,5.255,5.2551,5.2514,5.2515,5.2516,5.2516,0,0,0,0,0,0,0,5.2469,5.2473,5.2513,5.2496,5.2495,5.2488,5.2489,5.2513,5.2507,5.2493,5.2491,5.2493,5.2505,5.2512,5.2513,5.2551,5.2514,5.2515,5.2517,5.2517,5.2625,5.2626,0,0,0,0,0,0,5.247,5.2472,5.2512,5.2513,5.2479,5.249,5.2491,5.2502,5.2507,5.2506,5.2495,5.2492,5.2509,5.2511,5.2514,5.2564,5.2516,5.2517,5.2519,5.2623,5.2625,5.2627,0,0,0,0,0,0,5.2469,5.2473,5.2512,5.2492,5.2497,5.2493,5.2505,5.2503,5.251,5.2508,5.2507,5.2502,5.2508,5.2511,5.2541,5.2564,5.2518,5.252,5.2621,5.2624,5.2626,5.2665,0,0,0,0,0,0,5.2467,5.2473,5.2489,5.2493,5.2498,5.2539,5.2506,5.2505,5.2514,5.251,5.2515,5.2515,5.2507,5.2539,5.2543,5.2566,5.2522,5.2619,5.2622,5.2625,5.2662,5.2669,5.2675,0,0,0,0,0,5.2465,5.2498,5.249,5.2495,5.2517,5.254,5.2543,5.2534,5.2516,5.2532,5.2531,5.2515,5.2561,5.2542,5.2547,5.2571,5.2617,5.2621,5.2625,5.2659,5.2667,5.2674,0,0,0,0,0,0,5.2496,5.2498,5.2489,5.2524,5.2533,5.2535,5.2555,5.2543,5.2555,5.2552,5.2539,5.2541,5.2574,5.2575,5.2554,5.2613,5.2586,5.2591,5.261,5.2618,5.2625,5.2624,5.2523,0,0,0,0,0,5.2507,5.2526,5.2527,5.2558,5.2563,5.2558,5.2568,5.2561,5.2568,5.2571,5.2572,5.258,5.2597,5.2608,5.2623,5.2662,5.2663,5.2681,5.2688,5.2693,5.2697,5.272,5.2729,5.2639,5.2639,5.2639,0,0,5.2529,5.2533,5.2546,5.2565,5.257,5.259,5.2561,5.2583,5.2598,5.2574,5.2603,5.2605,5.2613,5.2648,5.2664,5.265,5.2723,5.2698,5.2702,5.2704,5.2725,5.2733,5.2741,5.2642,5.2641,5.2641,0,0,5.2581,5.2586,5.2613,5.262,5.2629,5.2626,5.2633,5.2638,5.2638,5.2668,5.2651,5.2668,5.2697,5.2704,5.2711,5.2769,5.2755,5.2774,5.2807,5.283,5.2837,5.2843,5.2864,5.2872,5.2778,5.2778,5.2779,0,5.2608,5.2638,5.2629,5.2652,5.2662,5.2643,5.2671,5.2678,5.2691,5.2698,5.2683,5.272,5.2724,5.2762,5.2776,5.2782,5.279,5.2773,5.2836,5.2843,5.2848,5.2869,5.2877,5.2781,5.2781,5.278,5.278,0,5.2671,5.2692,5.2713,5.2728,5.274,5.2765,5.2761,5.2774,5.2766,5.2765,5.2796,5.2801,5.2817,5.2826,5.2818,5.2863,5.2855,5.2838,5.2812,5.2859,5.2878,5.2886,5.2784,5.2783,5.2783,5.2782,0,0,5.274,5.2752,5.276,5.2767,5.2777,5.2793,5.2819,5.2836,5.2848,5.2859,5.2881,5.2906,5.2892,5.2901,5.2894,5.2913,5.296,5.2895,5.2895,5.2907,5.3012,5.3024,5.3033,5.2951,5.2953,5.2954,5.3011,0,5.2792,5.2837,5.2831,5.2874,5.2895,5.2878,5.2901,5.291,5.291,5.2927,5.2927,5.2947,5.2926,5.2931,5.295,5.295,5.2981,5.2946,5.2971,5.2972,5.297,5.3043,5.3056,5.311,5.3019,5.302,5.3021,0,5.2858,5.2873,5.2919,5.2928,5.2936,5.2957,5.2973,5.299,5.3,5.2999,5.301,5.3,5.3026,5.3,5.3036,5.3013,5.3023,5.3026,5.3027,5.3029,5.2999,5.3047,5.3126,5.3135,5.3032,5.3031,5.303,0,5.2906,5.2937,5.2969,5.2976,5.2987,5.3002,5.3007,5.3016,5.3027,5.3042,5.3049,5.3066,5.3076,5.3089,5.3085,5.3065,5.3123,5.3095,5.3123,5.3123,5.3135,5.3135,5.3218,5.3142,5.3142,5.3141,5.3141,0,5.2965,5.2993,5.2991,5.301,5.3043,5.3036,5.3068,5.3071,5.308,5.31,5.3087,5.3106,5.3098,5.3117,5.3114,5.3146,5.315,5.315,5.3149,5.3151,5.3151,5.3157,5.3154,5.3144,5.3143,5.3143,5.3142,0,5.3023,5.3022,5.3056,5.3064,5.3067,5.3091,5.3098,5.3117,5.3117,5.3143,5.3149,5.3149,5.3171,5.3168,5.3192,5.319,5.3229,5.3223,5.3226,5.3225,5.3253,5.3251,5.3343,5.3355,5.3271,5.3272,5.3273,0,5.306,5.3082,5.3094,5.3108,5.3114,5.3135,5.3148,5.3143,5.3156,5.3171,5.3188,5.3209,5.3225,5.3261,5.3264,5.3282,5.3277,5.3308,5.3279,5.3282,5.3278,5.3277,5.328,5.3314,5.3315,5.3315,5.3316,0,5.3128,5.3127,5.3145,5.3165,5.318,5.3195,5.3208,5.322,5.3216,5.3232,5.3255,5.3268,5.3293,5.3315,5.3333,5.3338,5.3327,5.3325,5.3333,5.3336,5.3337,5.3337,5.3242,5.3323,5.3322,5.3322,5.3321,5.3321,5.3177,5.3197,5.3209,5.3231,5.3241,5.3254,5.3273,5.3276,5.3296,5.3317,5.3313,5.3339,5.335,5.3374,5.3381,5.3402,5.339,5.3401,5.3403,5.3406,5.341,5.3334,5.3405,5.3404,5.3404,5.3404,5.3404,0,5.3244,5.3252,5.3272,5.3292,5.331,5.3299,5.3314,5.3329,5.3353,5.3365,5.3382,5.3409,5.3431,5.3435,5.3456,5.3471,5.3467,5.3477,5.3476,5.3478,5.3419,5.341,5.348,5.348,5.348,5.348,5.348,5.348,5.3281,5.3315,5.3316,5.3355,5.3362,5.3389,5.3398,5.3411,5.3421,5.3452,5.347,5.3474,5.3483,5.3504,5.3524,5.3525,5.3533,5.3545,5.3544,5.3489,5.3481,5.3474,5.3466,5.3547,5.3547,5.3601,5.3602,5.3602]}]]